Location: Doussal
(55.6167°N, 116.8333°W)
Time: 22:57:37
(UTC+00:00)

BlueWalker 3 - Visible Passes

Search period start: 14 April 2024 00:00
Search period end: 24 April 2024 00:00
Orbit: 485 x 496 km, 53.2° (Epoch: 13 April)

Date Brightness Start Highest point End Pass type
(mag) Time Alt. Az. Time Alt. Az. Time Alt. Az.
14 Apr 2.7 09:50:22 37° SE 09:50:22 37° SE 09:53:00 10° ESE visible
14 Apr 3.1 11:24:49 14° WSW 11:27:00 22° SSW 11:30:00 10° SSE visible
15 Apr 3.9 09:27:27 17° ESE 09:27:27 17° ESE 09:28:30 10° ESE visible
15 Apr 3.1 11:01:57 22° SW 11:02:31 23° SSW 11:05:34 10° SSE visible
16 Apr 3.6 10:39:37 18° S 10:39:37 18° S 10:41:06 10° SSE visible
17 Apr 4.1 05:16:33 10° SSW 05:17:05 13° SSW 05:17:05 13° SSW visible
18 Apr 2.8 04:52:03 10° SSW 04:55:21 27° SSE 04:55:32 27° SE visible
18 Apr 4.2 06:29:24 10° WSW 06:30:04 14° WSW 06:30:04 14° WSW visible
19 Apr 2.9 04:27:33 10° SSW 04:30:48 27° SSE 04:33:11 15° E visible
19 Apr 2.5 06:04:51 10° WSW 06:07:41 42° SW 06:07:41 42° SW visible
20 Apr 2.9 04:03:02 10° SSW 04:06:16 26° SSE 04:09:29 10° E visible
20 Apr 1.9 05:40:18 10° WSW 05:44:03 55° S 05:44:44 47° SE visible
20 Apr 4.1 07:18:20 10° W 07:19:12 16° W 07:19:12 16° W visible
21 Apr 2.0 05:15:45 10° WSW 05:19:30 55° SSE 05:21:26 25° ESE visible
21 Apr 3.2 06:53:46 10° W 06:55:52 30° WSW 06:55:52 30° WSW visible
22 Apr 2.0 04:51:10 10° WSW 04:54:55 54° SSE 04:57:55 15° E visible
22 Apr 2.2 06:29:10 10° W 06:32:21 49° SW 06:32:21 49° SW visible
23 Apr 2.1 04:26:34 10° WSW 04:30:18 53° SSE 04:34:04 10° E visible
23 Apr 1.9 06:04:34 10° W 06:08:20 57° S 06:08:40 55° SSE visible
23 Apr 4.5 07:42:51 10° W 07:43:06 11° W 07:43:06 11° W visible
